CES0319 ZSSS-ZGSZ

Flight info

Callsign CES0319
Flight time N/A
Altitude 34100
Route NXD W131 AKDIM A470 DUBGO W134 ELNEX A599 PLT W19 ATKAV W20 SALIV R473 NOLON W90 POU W7 SAREX
Aircraft A339/H-SADE1E2E3GHIJ3J5M1P2RWXY/LB2D1

Departure

Time N/A
Airport Shanghai Hongqiao International Airport (ZSSS)

Arrival

Time 2026-04-25 02:25
Airport Shenzhen Bao'an International Airport (ZGSZ)
Time Latitude Longitude Altitude Speed Heading
2026-04-25 01:06 28.54512 118.12861 34206 ft 380 kts 234°
2026-04-25 01:07 28.50947 118.08468 34194 ft 380 kts 234°
2026-04-25 01:07 28.47338 118.04007 34194 ft 391 kts 234°
2026-04-25 01:08 28.43556 117.99354 34190 ft 405 kts 233°
2026-04-25 01:08 28.39666 117.94634 34182 ft 411 kts 233°
2026-04-25 01:09 28.35684 117.89970 34191 ft 412 kts 233°
2026-04-25 01:09 28.31732 117.85320 34190 ft 410 kts 234°
2026-04-25 01:10 28.27779 117.80665 34192 ft 410 kts 233°
2026-04-25 01:10 28.23833 117.76025 34190 ft 409 kts 233°
2026-04-25 01:11 28.19898 117.71391 34193 ft 408 kts 234°
2026-04-25 01:11 28.15967 117.66766 34194 ft 406 kts 234°
2026-04-25 01:12 28.12046 117.62173 34202 ft 407 kts 234°
2026-04-25 01:12 28.08121 117.57561 34197 ft 407 kts 234°
2026-04-25 01:13 28.04192 117.52956 34203 ft 406 kts 234°
2026-04-25 01:13 28.00258 117.48357 34201 ft 407 kts 235°
2026-04-25 01:14 27.96343 117.43774 34205 ft 405 kts 234°
2026-04-25 01:14 27.92422 117.39191 34210 ft 407 kts 234°
2026-04-25 01:15 27.88741 117.34897 34211 ft 407 kts 234°
2026-04-25 01:15 27.84870 117.30381 34209 ft 406 kts 234°
2026-04-25 01:16 27.81001 117.25881 34209 ft 408 kts 234°
2026-04-25 01:16 27.77033 117.21258 34212 ft 407 kts 234°
2026-04-25 01:17 27.73074 117.16663 34208 ft 409 kts 234°
2026-04-25 01:17 27.69130 117.12077 34210 ft 406 kts 234°
2026-04-25 01:18 27.65176 117.07501 34207 ft 408 kts 233°
2026-04-25 01:18 27.61240 117.02934 34206 ft 408 kts 234°
2026-04-25 01:19 27.57258 116.98327 34209 ft 409 kts 234°
2026-04-25 01:19 27.53281 116.93727 34209 ft 408 kts 233°
2026-04-25 01:20 27.49339 116.89151 34210 ft 408 kts 234°
2026-04-25 01:20 27.45389 116.84534 34210 ft 408 kts 234°
2026-04-25 01:21 27.41454 116.79928 34204 ft 410 kts 234°
2026-04-25 01:21 27.37491 116.75301 34203 ft 412 kts 234°
2026-04-25 01:22 27.33517 116.70657 34204 ft 410 kts 234°
2026-04-25 01:22 27.29560 116.66041 34206 ft 411 kts 234°
2026-04-25 01:23 27.25592 116.61412 34204 ft 410 kts 234°
2026-04-25 01:23 27.21609 116.56779 34203 ft 411 kts 234°
2026-04-25 01:24 27.17703 116.52122 34203 ft 411 kts 234°
2026-04-25 01:24 27.13831 116.47423 34205 ft 409 kts 235°
2026-04-25 01:25 27.09955 116.42726 34205 ft 412 kts 235°
2026-04-25 01:25 27.06042 116.37990 34210 ft 412 kts 235°
2026-04-25 01:26 27.02207 116.33352 34216 ft 412 kts 233°
2026-04-25 01:26 26.98308 116.28639 34211 ft 412 kts 235°
2026-04-25 01:27 26.94987 116.24635 34208 ft 412 kts 234°
2026-04-25 01:27 26.91351 116.20256 34206 ft 411 kts 234°
2026-04-25 01:28 26.85757 116.13457 34207 ft 412 kts 234°
2026-04-25 01:28 26.82171 116.09101 34206 ft 413 kts 234°
2026-04-25 01:29 26.78470 116.04604 34205 ft 414 kts 234°
2026-04-25 01:29 26.74548 115.99842 34200 ft 415 kts 234°
2026-04-25 01:30 26.70628 115.95091 34200 ft 416 kts 234°
2026-04-25 01:30 26.66720 115.90354 34204 ft 416 kts 234°
2026-04-25 01:31 26.62794 115.85599 34210 ft 416 kts 234°
2026-04-25 01:31 26.58863 115.80855 34212 ft 417 kts 234°
2026-04-25 01:32 26.54930 115.76104 34214 ft 417 kts 234°
2026-04-25 01:32 26.50981 115.71340 34213 ft 419 kts 234°
2026-04-25 01:33 26.47016 115.66566 34210 ft 419 kts 234°
2026-04-25 01:33 26.43066 115.61809 34211 ft 418 kts 234°
2026-04-25 01:34 26.39086 115.57025 34211 ft 420 kts 234°
2026-04-25 01:34 26.35117 115.52258 34212 ft 421 kts 234°
2026-04-25 01:35 26.31140 115.47485 34209 ft 421 kts 234°
2026-04-25 01:35 26.27151 115.42698 34208 ft 421 kts 233°
2026-04-25 01:36 26.23163 115.37929 34206 ft 422 kts 233°
2026-04-25 01:36 26.19153 115.33128 34211 ft 422 kts 233°
2026-04-25 01:37 26.15093 115.28280 34205 ft 423 kts 233°
2026-04-25 01:37 26.11064 115.23473 34199 ft 424 kts 233°
2026-04-25 01:38 26.07048 115.18689 34204 ft 424 kts 233°
2026-04-25 01:38 26.03017 115.13886 34203 ft 425 kts 233°
2026-04-25 01:39 25.98972 115.09067 34205 ft 425 kts 232°
2026-04-25 01:39 25.94942 115.04279 34206 ft 426 kts 233°
2026-04-25 01:40 25.90882 114.99453 34207 ft 426 kts 233°
2026-04-25 01:40 25.86865 114.94707 34207 ft 428 kts 231°
2026-04-25 01:41 25.82318 114.90565 34211 ft 439 kts 221°
2026-04-25 01:41 25.76980 114.87301 34203 ft 451 kts 211°
2026-04-25 01:42 25.70925 114.85124 34203 ft 465 kts 202°
2026-04-25 01:42 25.64578 114.83508 34201 ft 464 kts 201°
2026-04-25 01:43 25.62512 114.82995 34200 ft 465 kts 201°
2026-04-25 01:44 25.38241 114.76978 34188 ft 468 kts 201°
2026-04-25 01:45 25.31852 114.75401 34182 ft 468 kts 201°
2026-04-25 01:45 25.25484 114.73827 34180 ft 469 kts 201°
2026-04-25 01:46 25.19138 114.72263 34184 ft 470 kts 201°
2026-04-25 01:46 25.12742 114.70684 34185 ft 471 kts 201°
2026-04-25 01:47 25.06306 114.69099 34188 ft 471 kts 200°
2026-04-25 01:47 24.99893 114.67518 34187 ft 473 kts 200°
2026-04-25 01:48 24.93463 114.65936 34185 ft 470 kts 200°
2026-04-25 01:48 24.87011 114.64350 34180 ft 472 kts 200°
2026-04-25 01:49 24.80466 114.62744 34184 ft 473 kts 200°
2026-04-25 01:49 24.74862 114.61218 34177 ft 468 kts 204°
2026-04-25 01:50 24.68724 114.58812 34186 ft 462 kts 210°
2026-04-25 01:50 24.63008 114.55752 34186 ft 457 kts 216°
2026-04-25 01:51 24.57474 114.52264 34191 ft 456 kts 217°
2026-04-25 01:51 24.51975 114.48785 34192 ft 457 kts 217°
2026-04-25 01:52 24.46575 114.45097 34193 ft 451 kts 223°
2026-04-25 01:52 24.42069 114.40414 34196 ft 442 kts 234°
2026-04-25 01:53 24.38647 114.34892 34193 ft 436 kts 245°
2026-04-25 01:53 24.36250 114.28932 34194 ft 434 kts 250°
2026-04-25 01:54 24.34005 114.22823 34196 ft 435 kts 250°
2026-04-25 01:54 24.31752 114.16664 34199 ft 435 kts 250°
2026-04-25 01:55 24.28924 114.10802 34195 ft 440 kts 240°
2026-04-25 01:55 24.25001 114.05566 34184 ft 447 kts 230°
2026-04-25 01:56 24.20135 114.01230 34186 ft 458 kts 219°
2026-04-25 01:56 24.14792 113.97428 34187 ft 459 kts 219°
2026-04-25 01:57 24.07226 113.91135 33827 ft 450 kts 227°
2026-04-25 01:57 24.04890 113.88849 33168 ft 448 kts 227°
2026-04-25 01:58 24.02598 113.86600 32530 ft 446 kts 227°
2026-04-25 01:58 24.00288 113.84329 31880 ft 445 kts 227°
2026-04-25 01:58 23.97979 113.82060 31241 ft 444 kts 227°
2026-04-25 01:58 23.95683 113.79806 30595 ft 443 kts 227°
2026-04-25 01:59 23.93404 113.77568 29957 ft 442 kts 227°
2026-04-25 01:59 23.91121 113.75328 29317 ft 442 kts 227°
2026-04-25 01:59 23.88824 113.73068 28665 ft 446 kts 226°
2026-04-25 01:59 23.86498 113.70785 28020 ft 450 kts 226°
2026-04-25 02:00 23.84113 113.68447 27364 ft 453 kts 226°
2026-04-25 02:00 23.81723 113.66105 26713 ft 456 kts 226°
2026-04-25 02:00 23.79367 113.63797 26079 ft 459 kts 226°
2026-04-25 02:00 23.76980 113.61465 25553 ft 456 kts 226°
2026-04-25 02:01 23.74598 113.59135 25041 ft 455 kts 226°
2026-04-25 02:01 23.72239 113.56830 24582 ft 454 kts 226°
2026-04-25 02:01 23.69866 113.54511 24176 ft 452 kts 226°
2026-04-25 02:01 23.68999 113.53663 24042 ft 451 kts 226°
2026-04-25 02:02 23.67446 113.52145 23812 ft 451 kts 226°
2026-04-25 02:02 23.65092 113.49845 23481 ft 450 kts 226°
2026-04-25 02:02 23.62780 113.47586 23201 ft 449 kts 226°
2026-04-25 02:02 23.60420 113.45283 22954 ft 448 kts 226°
2026-04-25 02:03 23.58104 113.43024 22662 ft 445 kts 226°
2026-04-25 02:03 23.55754 113.40829 22066 ft 445 kts 222°
2026-04-25 02:03 23.53204 113.38965 21505 ft 446 kts 215°
2026-04-25 02:03 23.50434 113.37431 20915 ft 448 kts 208°
2026-04-25 02:04 23.47514 113.36222 20374 ft 446 kts 204°
2026-04-25 02:04 23.44570 113.35094 19805 ft 444 kts 203°
2026-04-25 02:04 23.41610 113.33979 19252 ft 442 kts 203°
2026-04-25 02:04 23.38679 113.32876 18709 ft 439 kts 202°
2026-04-25 02:05 23.35822 113.31796 18182 ft 436 kts 203°
2026-04-25 02:05 23.33926 113.31077 17836 ft 434 kts 203°
2026-04-25 02:05 23.30114 113.29629 17136 ft 430 kts 202°
2026-04-25 02:05 23.27282 113.28552 16618 ft 428 kts 202°
2026-04-25 02:06 23.24485 113.27490 16107 ft 425 kts 202°
2026-04-25 02:06 23.21695 113.26429 15592 ft 422 kts 202°
2026-04-25 02:06 23.18911 113.25370 15069 ft 420 kts 202°
2026-04-25 02:06 23.16155 113.24323 14557 ft 418 kts 202°
2026-04-25 02:07 23.13383 113.23270 14030 ft 416 kts 202°
2026-04-25 02:07 23.10648 113.22234 13515 ft 413 kts 202°
2026-04-25 02:07 23.07940 113.21220 13006 ft 412 kts 199°
2026-04-25 02:07 23.05091 113.20791 12480 ft 414 kts 178°
2026-04-25 02:08 23.02301 113.21591 12000 ft 410 kts 154°
2026-04-25 02:08 23.00095 113.23398 11418 ft 392 kts 130°
2026-04-25 02:08 22.98663 113.25826 11003 ft 368 kts 114°
2026-04-25 02:08 22.97603 113.28265 10934 ft 351 kts 114°
2026-04-25 02:09 22.96565 113.30600 10892 ft 339 kts 115°
2026-04-25 02:09 22.95521 113.32880 10874 ft 327 kts 116°
2026-04-25 02:09 22.94509 113.35040 10827 ft 317 kts 116°
2026-04-25 02:09 22.93515 113.37141 10619 ft 313 kts 116°
2026-04-25 02:10 22.92523 113.39225 10407 ft 310 kts 116°
2026-04-25 02:10 22.91531 113.41302 10189 ft 306 kts 117°
2026-04-25 02:10 22.90562 113.43327 9977 ft 303 kts 117°
2026-04-25 02:10 22.89571 113.45381 9760 ft 300 kts 120°
2026-04-25 02:11 22.88237 113.47083 9528 ft 296 kts 145°
2026-04-25 02:11 22.86421 113.48035 9318 ft 289 kts 168°
2026-04-25 02:11 22.84443 113.48186 9107 ft 282 kts 186°
2026-04-25 02:11 22.82484 113.48014 8891 ft 280 kts 187°
2026-04-25 02:12 22.80545 113.47826 8674 ft 278 kts 187°
2026-04-25 02:12 22.78619 113.47653 8458 ft 276 kts 186°
2026-04-25 02:12 22.76702 113.47498 8242 ft 274 kts 186°
2026-04-25 02:12 22.74797 113.47352 7968 ft 275 kts 186°
2026-04-25 02:13 22.72861 113.47206 7607 ft 279 kts 186°
2026-04-25 02:13 22.70912 113.47060 7299 ft 280 kts 186°
2026-04-25 02:13 22.68960 113.46916 7035 ft 280 kts 185°
2026-04-25 02:13 22.67027 113.46774 6772 ft 280 kts 186°
2026-04-25 02:14 22.65069 113.46628 6504 ft 280 kts 185°
2026-04-25 02:14 22.63106 113.46483 6236 ft 279 kts 185°
2026-04-25 02:14 22.61185 113.46341 5940 ft 277 kts 185°
2026-04-25 02:14 22.59280 113.46383 5657 ft 271 kts 165°
2026-04-25 02:15 22.57646 113.47354 5392 ft 269 kts 134°
2026-04-25 02:15 22.56610 113.48992 5139 ft 265 kts 116°
2026-04-25 02:15 22.55769 113.50775 4944 ft 261 kts 116°
2026-04-25 02:15 22.54958 113.52490 4825 ft 256 kts 116°
2026-04-25 02:16 22.54137 113.54187 4703 ft 251 kts 117°
2026-04-25 02:16 22.53320 113.55849 4582 ft 246 kts 117°
2026-04-25 02:16 22.52518 113.57457 4459 ft 242 kts 117°
2026-04-25 02:16 22.51718 113.59042 4336 ft 237 kts 117°
2026-04-25 02:17 22.50936 113.60590 4214 ft 233 kts 117°
2026-04-25 02:17 22.50168 113.62112 4092 ft 229 kts 117°
2026-04-25 02:17 22.49406 113.63618 3971 ft 225 kts 117°
2026-04-25 02:17 22.48688 113.65121 3846 ft 221 kts 113°
2026-04-25 02:18 22.48125 113.66676 3726 ft 221 kts 108°
2026-04-25 02:18 22.47621 113.68240 3603 ft 221 kts 107°
2026-04-25 02:18 22.47120 113.69818 3480 ft 220 kts 107°
2026-04-25 02:18 22.46624 113.71374 3361 ft 220 kts 107°
2026-04-25 02:19 22.46121 113.72947 3238 ft 220 kts 107°
2026-04-25 02:19 22.45789 113.73985 3157 ft 219 kts 108°
2026-04-25 02:19 22.45126 113.76041 2996 ft 218 kts 108°
2026-04-25 02:19 22.44624 113.77599 2874 ft 217 kts 107°
2026-04-25 02:20 22.44436 113.79172 2736 ft 214 kts 75°
2026-04-25 02:20 22.45030 113.80650 2624 ft 212 kts 60°
2026-04-25 02:20 22.45740 113.82039 2502 ft 211 kts 60°
2026-04-25 02:20 22.46439 113.83427 2377 ft 210 kts 61°
2026-04-25 02:21 22.47127 113.84818 2264 ft 208 kts 61°
2026-04-25 02:21 22.47790 113.86182 2252 ft 198 kts 61°
2026-04-25 02:21 22.48411 113.87450 2241 ft 187 kts 57°
2026-04-25 02:21 22.49351 113.88348 2230 ft 181 kts 17°
2026-04-25 02:22 22.50604 113.88384 2253 ft 184 kts 343°
2026-04-25 02:22 22.51784 113.87837 2260 ft 186 kts 333°
2026-04-25 02:22 22.52927 113.87146 2062 ft 188 kts 332°
2026-04-25 02:22 22.54085 113.86457 1838 ft 190 kts 334°
2026-04-25 02:23 22.55260 113.85800 1610 ft 190 kts 335°
2026-04-25 02:23 22.56456 113.85151 1352 ft 191 kts 334°
2026-04-25 02:23 22.57640 113.84508 1089 ft 187 kts 334°
2026-04-25 02:23 22.58775 113.83886 849 ft 180 kts 334°
2026-04-25 02:24 22.59869 113.83287 617 ft 172 kts 334°
2026-04-25 02:24 22.60919 113.82713 402 ft 165 kts 334°
2026-04-25 02:24 22.61921 113.82171 208 ft 158 kts 334°
2026-04-25 02:24 22.62900 113.81643 37 ft 150 kts 333°
2026-04-25 02:25 22.63762 113.81168 29 ft 122 kts 331°
2026-04-25 02:25 22.64205 113.80915 29 ft 95 kts 335°
2026-04-25 02:25 22.64704 113.80637 29 ft 25 kts 333°
2026-04-25 02:25 22.64847 113.80559 29 ft 22 kts 333°
2026-04-25 02:26 22.64988 113.80481 29 ft 22 kts 333°
2026-04-25 02:26 22.65123 113.80409 29 ft 21 kts 332°
2026-04-25 02:26 22.65159 113.80283 29 ft 19 kts 242°
2026-04-25 02:26 22.65144 113.80253 29 ft 0 kts 242°
2026-04-25 02:27 22.65143 113.80250 29 ft 1 kts 242°
2026-04-25 02:27 22.65134 113.80232 29 ft 3 kts 242°
2026-04-25 02:27 22.65118 113.80199 29 ft 6 kts 242°
2026-04-25 02:27 22.65094 113.80151 29 ft 7 kts 235°
2026-04-25 02:28 22.65044 113.80130 29 ft 8 kts 166°
2026-04-25 02:28 22.64982 113.80160 29 ft 10 kts 153°
2026-04-25 02:28 22.64913 113.80199 29 ft 11 kts 152°
2026-04-25 02:28 22.64850 113.80230 29 ft 0 kts 176°
2026-04-25 02:29 22.64844 113.80228 29 ft 2 kts 200°
2026-04-25 02:29 22.64821 113.80206 29 ft 6 kts 236°
2026-04-25 02:29 22.64801 113.80158 29 ft 8 kts 249°
2026-04-25 02:29 22.64778 113.80096 29 ft 9 kts 246°
2026-04-25 02:30 22.64746 113.80026 29 ft 11 kts 244°
2026-04-25 02:30 22.64710 113.79946 29 ft 12 kts 244°
2026-04-25 02:30 22.64670 113.79859 29 ft 13 kts 244°
2026-04-25 02:30 22.64625 113.79765 29 ft 14 kts 234°
2026-04-25 02:31 22.64578 113.79732 29 ft 0 kts 179°
2026-04-25 02:31 22.64572 113.79733 29 ft 1 kts 160°
2026-04-25 02:31 22.64556 113.79746 29 ft 3 kts 139°
2026-04-25 02:31 22.64528 113.79767 29 ft 5 kts 160°
2026-04-25 02:32 22.64500 113.79766 29 ft 6 kts 200°
2026-04-25 02:32 22.64462 113.79741 29 ft 0 kts 213°
2026-04-25 02:32 22.64452 113.79733 29 ft 0 kts 216°